Weather in Nazca

Peru     14°50′24″S   74°56′32″W
temp.,
°C
wind,
m/s
gust,
m/s
humid.,
%
clouds,
%
prec.,
mm/h
press.,
hPa
HPBL,
m
24 july, sat
sat2401:00+15ssw117377 0.0 101657
04:00+14wsw11735 0.0 101525
07:00+14ssw11723 0.0 101640
10:00+18w11581 0.0 1017329
13:00+23w32410 0.0 1014695
16:00+23w434281 0.0 1013488
19:00+17w33635 0.0 1015186
22:00+17wsw22645 0.0 1017122
25 july, sun
sun2501:00+15sw017497 0.0 101678
04:00+15wnw117253 0.0 1015115
07:00+14wnw117335 0.0 101666
10:00+17w216145 0.0 1018374
13:00+21w32464 0.0 1015773
16:00+20w32500 0.0 1014497
19:00+17w32650 0.0 1017213
22:00+14nw01780 0.0 1018155
26 july, mon
mon2601:00+14wsw11825 0.0 101777
04:00+13wsw11865 0.0 101645
07:00+13sw11833 0.0 101761
10:00+18sw21625 0.0 1018417
13:00+22wsw21455 0.0 1015808
16:00+23wsw32383 0.0 1013918
19:00+18sw32590 0.0 1016217
22:00+15sse11702 0.0 1018144
27 july, tue
tue2701:00+14s227510 0.0 101796
04:00+14se11785 0.0 101653
07:00+14s22745 0.0 101770
10:00+19sw20522 0.0 1017328
13:00+23wsw31385 0.0 1015735
16:00+24sw32369 0.0 1013795
19:00+16sse226521 0.0 1016206
22:00+16ssw216859 0.0 1017119
28 july, wed
wed2801:00+14s11755 0.0 101676
04:00+13ssw22775 0.0 101561
07:00+13ssw11797 0.0 101673
10:00+18sw215518 0.0 1015348
13:00+23wsw314095 0.0 1014754
16:00+24wsw323872 0.0 1012704
19:00+19sw115582 0.0 1014139
22:00+16wsw106619 0.0 101692